{"data":{"norad_id":53758,"epoch":"2026-09-20T18:24:32.859072Z","epoch_age_seconds":126649,"freshness":"FRESH","line1":"1 53758U 22108B   26263.76704698  .00000300  00000+0  96946-4 0  9997","line2":"2 53758  53.5320  17.0608 0008072 218.7575 141.2822 14.62029038215544","mean_motion":14.62029038,"eccentricity":0.0008072,"inclination_deg":53.532,"raan_deg":17.0608,"arg_perigee_deg":218.7575,"mean_anomaly_deg":141.2822,"bstar":9.6946e-5,"rev_number":21554,"period_min":98.493255781695,"perigee_km":680.92730759401,"apogee_km":692.33266741864,"semimajor_km":7064.7669875063,"source":"CELESTRAK","updated_at":"2026-09-21T09:00:09.188004Z"}}